"# Mixing ratio of CO2 (xCO2) in dry air measured onboard R/V Hakuho-maru of the Ocean Research Institue, the University of Tokyo.",,,,,,,,,,,,,,,,,,,,,,
# Version 2.2; 01 May 2008.,,,,,,,,,,,,,,,,,,,,,,
# Measured by Meteorological Research Institute. ,,,,,,,,,,,,,,,,,,,,,,
# PI : Unknown; Reanalyzed by H. Y. Inoue,,,,,,,,,,,,,,,,,,,,,,
# Concetrarion scale = MRI87,,,,,,,,,,,,,,,,,,,,,,
# Time = UTC,,,,,,,,,,,,,,,,,,,,,,
"# Reference: Inoue et al., Tellus 51B, 830-848 (1999).",,,,,,,,,,,,,,,,,,,,,,
Ship,Cruise,Serial No.,Date,,,Time,,Latitude,Longitude,xCO2_Air,F,xCO2_Sea,F,Wind_Dir,Wind_Spd,Atm_Prs,Atm_Tmp.,SST,F,SSS,F,pH2O
,,,Year,Month,Day,Hour,Min.,Deg.,Deg.,ppm,,ppm,,Deg.,m/s,hPa,deg.C,deg.C,,,,hPa
Hakuho-maru,KH70-2,1,1970,4,15,0,,36.2,143.8,329.8,8,275,5,-99,-9.9,1030.5,-99.9,17.1,2,-9.999,9,19.1
Hakuho-maru,KH70-2,2,1970,4,15,1,,36.29,144.08,329.9,8,273.5,5,-99,-9.9,1030.1,-99.9,16.9,2,-9.999,9,18.8
Hakuho-maru,KH70-2,3,1970,4,15,5,,36.66,145.17,329.9,8,287.3,5,-99,-9.9,1028.5,-99.9,16.3,2,-9.999,9,18.1
Hakuho-maru,KH70-2,4,1970,4,15,6,,36.77,145.43,329.9,8,286.9,5,-99,-9.9,1028.5,-99.9,16.1,2,-9.999,9,17.9
Hakuho-maru,KH70-2,5,1970,4,15,8,,36.98,145.94,329.9,8,301.3,5,-99,-9.9,1028.3,-99.9,13.8,2,-9.999,9,15.4
Hakuho-maru,KH70-2,6,1970,4,15,10,,37.17,146.42,329.9,8,299.5,5,-99,-9.9,1028.3,-99.9,12,2,-9.999,9,13.7
Hakuho-maru,KH70-2,7,1970,4,15,11,,37.23,146.63,329.9,8,298.4,5,-99,-9.9,1028.3,-99.9,11.3,2,-9.999,9,13.1
Hakuho-maru,KH70-2,8,1970,4,15,12,,37.36,147.05,329.9,8,305.2,5,-99,-9.9,1028.4,-99.9,10.6,2,-9.999,9,12.5
Hakuho-maru,KH70-2,9,1970,4,15,13,,37.42,147.27,329.9,8,295.1,5,-99,-9.9,1028.4,-99.9,11.2,2,-9.999,9,13.1
Hakuho-maru,KH70-2,10,1970,4,15,14,,37.52,147.53,330,8,312.3,5,-99,-9.9,1028,-99.9,11.9,2,-9.999,9,13.7
Hakuho-maru,KH70-2,11,1970,4,15,15,,37.62,147.8,330,8,313,5,-99,-9.9,1027.7,-99.9,12.6,2,-9.999,9,14.3
Hakuho-maru,KH70-2,12,1970,4,15,22,,38.41,149.57,330,8,306.5,5,-99,-9.9,1026.4,-99.9,11.5,2,-9.999,9,13.3
Hakuho-maru,KH70-2,13,1970,4,15,23,,38.5,149.83,330,8,302.1,5,-99,-9.9,1025.9,-99.9,11.8,2,-9.999,9,13.6
Hakuho-maru,KH70-2,14,1970,4,16,1,,38.65,150.37,330,8,302.4,5,-99,-9.9,1024.7,-99.9,11.3,2,-9.999,9,13.2
Hakuho-maru,KH70-2,15,1970,4,16,2,,38.72,150.63,330,8,309,5,-99,-9.9,1024.1,-99.9,11,2,-9.999,9,12.9
Hakuho-maru,KH70-2,16,1970,4,16,3,,38.8,150.9,330,8,314.8,5,-99,-9.9,1023.5,-99.9,10.7,2,-9.999,9,12.6
Hakuho-maru,KH70-2,17,1970,4,16,4,,38.87,151.17,330,8,325.4,5,-99,-9.9,1023.1,-99.9,10.4,2,-9.999,9,12.3
Hakuho-maru,KH70-2,18,1970,4,16,5,,38.95,151.43,330,8,319,5,-99,-9.9,1022.7,-99.9,10,2,-9.999,9,12.1
Hakuho-maru,KH70-2,19,1970,4,16,6,,39.02,151.7,330,8,314.8,5,-99,-9.9,1022.3,-99.9,9.7,2,-9.999,9,11.8
Hakuho-maru,KH70-2,20,1970,4,16,7,,39.1,151.97,330,8,298.8,5,-99,-9.9,1021.9,-99.9,10.4,2,-9.999,9,12.4
Hakuho-maru,KH70-2,21,1970,4,16,8,,39.21,152.23,330,8,299.7,5,-99,-9.9,1021.5,-99.9,11.6,2,-9.999,9,13.4
Hakuho-maru,KH70-2,22,1970,4,16,9,,39.37,152.5,330,8,296.4,5,-99,-9.9,1021.2,-99.9,12.3,2,-9.999,9,14
Hakuho-maru,KH70-2,23,1970,4,16,10,,39.54,152.77,330.1,8,299.4,5,-99,-9.9,1020.8,-99.9,11.3,2,-9.999,9,13.2
Hakuho-maru,KH70-2,24,1970,4,16,15,,40.02,154.06,330.1,8,309.5,5,-99,-9.9,1018,-99.9,9,2,-9.999,9,11.3
Hakuho-maru,KH70-2,25,1970,4,16,16,,40.06,154.31,330.1,8,308.8,5,-99,-9.9,1017.2,-99.9,9,2,-9.999,9,11.3
Hakuho-maru,KH70-2,26,1970,4,16,19,,40.26,155.09,330.1,8,306.9,5,-99,-9.9,1015.9,-99.9,10,2,-9.999,9,12
Hakuho-maru,KH70-2,27,1970,4,16,20,,40.34,155.35,330.1,8,307,5,-99,-9.9,1015.5,-99.9,9.4,2,-9.999,9,11.6
Hakuho-maru,KH70-2,28,1970,4,16,21,,40.41,155.62,330.1,8,306.8,5,-99,-9.9,1015.2,-99.9,9.5,2,-9.999,9,11.6
Hakuho-maru,KH70-2,29,1970,4,16,22,,40.5,155.89,330.1,8,325.4,5,-99,-9.9,1014.9,-99.9,8.8,2,-9.999,9,11.1
Hakuho-maru,KH70-2,30,1970,4,16,23,,40.6,156.17,330.1,8,326.7,5,-99,-9.9,1014.6,-99.9,9.1,2,-9.999,9,11.3
Hakuho-maru,KH70-2,31,1970,4,17,0,,40.7,156.46,330.1,8,319.3,5,-99,-9.9,1014.3,-99.9,8.9,2,-9.999,9,11.2
Hakuho-maru,KH70-2,32,1970,4,17,1,,40.8,156.74,330.1,8,337.6,5,-99,-9.9,1014.1,-99.9,8.8,2,-9.999,9,11.1
Hakuho-maru,KH70-2,33,1970,4,17,2,,40.9,157.03,330.1,8,338.2,5,-99,-9.9,1013.8,-99.9,6.6,2,-9.999,9,9.6
Hakuho-maru,KH70-2,34,1970,4,17,3,,41,157.3,330.1,8,347.9,5,-99,-9.9,1013.8,-99.9,7.7,2,-9.999,9,10.3
Hakuho-maru,KH70-2,35,1970,4,17,4,,41.1,157.57,330.1,8,349.2,5,-99,-9.9,1013.8,-99.9,7,2,-9.999,9,9.8
Hakuho-maru,KH70-2,36,1970,4,17,5,,41.2,157.83,330.1,8,348.2,5,-99,-9.9,1013.9,-99.9,7,2,-9.999,9,9.8
Hakuho-maru,KH70-2,37,1970,4,17,6,,41.3,158.1,330.1,8,350.2,5,-99,-9.9,1013.9,-99.9,6.5,2,-9.999,9,9.5
Hakuho-maru,KH70-2,38,1970,4,17,7,,41.4,158.36,330.1,8,352.3,5,-99,-9.9,1014,-99.9,6.1,2,-9.999,9,9.3
Hakuho-maru,KH70-2,40,1970,4,17,10,,41.61,159.05,330.2,8,341.6,5,-99,-9.9,1014.8,-99.9,7.3,2,-9.999,9,10
Hakuho-maru,KH70-2,41,1970,4,17,11,,41.76,159.52,330.2,8,338.5,5,-99,-9.9,1015.1,-99.9,7.3,2,-9.999,9,10
Hakuho-maru,KH70-2,42,1970,4,17,12,,41.85,159.79,330.2,8,341.6,5,-99,-9.9,1014.8,-99.9,7.5,2,-9.999,9,10.2
Hakuho-maru,KH70-2,43,1970,4,17,13,,41.93,160.06,330.2,8,328.5,5,-99,-9.9,1014.5,-99.9,8.1,2,-9.999,9,10.6
Hakuho-maru,KH70-2,44,1970,4,17,14,,42.02,160.33,330.2,8,322.5,5,-99,-9.9,1014.2,-99.9,7.2,2,-9.999,9,10
Hakuho-maru,KH70-2,45,1970,4,17,15,,42.1,160.6,330.2,8,322.3,5,-99,-9.9,1013.9,-99.9,8.2,2,-9.999,9,10.7
Hakuho-maru,KH70-2,46,1970,4,17,16,,42.2,160.89,330.2,8,327.3,5,-99,-9.9,1013.6,-99.9,7.7,2,-9.999,9,10.3
Hakuho-maru,KH70-2,47,1970,4,17,17,,42.3,161.19,330.2,8,344.3,5,-99,-9.9,1013.2,-99.9,6.6,2,-9.999,9,9.6
Hakuho-maru,KH70-2,48,1970,4,17,18,,42.4,161.48,330.2,8,354,5,-99,-9.9,1012.9,-99.9,6.5,2,-9.999,9,9.5
Hakuho-maru,KH70-2,49,1970,4,17,19,,42.5,161.78,330.2,8,343,5,-99,-9.9,1012.6,-99.9,6.6,2,-9.999,9,9.6
Hakuho-maru,KH70-2,50,1970,4,17,20,,42.59,162.04,330.2,8,351.8,5,-99,-9.9,1012.1,-99.9,6.6,2,-9.999,9,9.6
Hakuho-maru,KH70-2,51,1970,4,17,21,,42.61,162.12,330.2,8,351,5,-99,-9.9,1010.8,-99.9,6.2,2,-9.999,9,9.3
Hakuho-maru,KH70-2,52,1970,4,17,22,,42.64,162.2,330.2,8,342.5,5,-99,-9.9,1009.5,-99.9,6.3,2,-9.999,9,9.4
Hakuho-maru,KH70-2,53,1970,4,17,23,,42.66,162.28,330.2,8,345.4,5,-99,-9.9,1008.1,-99.9,6.2,2,-9.999,9,9.3
Hakuho-maru,KH70-2,54,1970,4,18,0,,42.69,162.36,330.2,8,345.4,5,-99,-9.9,1006.8,-99.9,6.2,2,-9.999,9,9.3
Hakuho-maru,KH70-2,55,1970,4,18,1,,42.7,162.4,330.2,8,342.5,5,-99,-9.9,1005.1,-99.9,6.2,2,-9.999,9,9.3
Hakuho-maru,KH70-2,56,1970,4,18,2,,42.7,162.4,330.2,8,340.3,5,-99,-9.9,1003.1,-99.9,6.3,2,-9.999,9,9.4
Hakuho-maru,KH70-2,57,1970,4,18,3,,42.7,162.4,330.2,8,337.5,5,-99,-9.9,1001,-99.9,6.3,2,-9.999,9,9.4
Hakuho-maru,KH70-2,58,1970,4,18,4,,42.7,162.4,330.2,8,341.5,5,-99,-9.9,999,-99.9,6.3,2,-9.999,9,9.4
Hakuho-maru,KH70-2,59,1970,4,18,5,,42.7,162.4,330.2,8,348.2,5,-99,-9.9,996.9,-99.9,6.3,2,-9.999,9,9.4
Hakuho-maru,KH70-2,60,1970,4,18,6,,42.8,162.62,330.2,8,348.4,5,-99,-9.9,996.5,-99.9,6.4,2,-9.999,9,9.4
Hakuho-maru,KH70-2,61,1970,4,18,7,,42.93,162.89,330.2,8,352.5,5,-99,-9.9,996.4,-99.9,6.5,2,-9.999,9,9.5
Hakuho-maru,KH70-2,62,1970,4,18,8,,43.05,163.16,330.2,8,350.5,5,-99,-9.9,996.3,-99.9,6.3,2,-9.999,9,9.4
Hakuho-maru,KH70-2,63,1970,4,18,9,,43.18,163.43,330.2,8,348.3,5,-99,-9.9,996.2,-99.9,5.1,2,-9.999,9,8.6
Hakuho-maru,KH70-2,64,1970,4,18,10,,43.3,163.7,330.2,8,356.5,5,-99,-9.9,996,-99.9,6.5,2,-9.999,9,9.5
Hakuho-maru,KH70-2,65,1970,4,18,11,,43.4,164,330.2,8,359.1,5,-99,-9.9,995.6,-99.9,6.6,2,-9.999,9,9.6
Hakuho-maru,KH70-2,66,1970,4,18,12,,43.5,164.3,330.2,8,363.9,5,-99,-9.9,995.2,-99.9,4.5,2,-9.999,9,8.2
Hakuho-maru,KH70-2,69,1970,4,18,15,,43.8,165.2,330.2,8,371.6,5,-99,-9.9,994.2,-99.9,5.2,2,-9.999,9,8.6
Hakuho-maru,KH70-2,70,1970,4,18,16,,43.89,165.49,330.2,8,366.2,5,-99,-9.9,994.5,-99.9,4.6,2,-9.999,9,8.3
Hakuho-maru,KH70-2,71,1970,4,18,17,,43.98,165.78,330.3,8,360.6,5,-99,-9.9,994.7,-99.9,4.7,2,-9.999,9,8.4
Hakuho-maru,KH70-2,72,1970,4,18,18,,44.07,166.07,330.3,8,367.2,5,-99,-9.9,994.9,-99.9,5.5,2,-9.999,9,8.8
Hakuho-maru,KH70-2,73,1970,4,18,19,,44.17,166.37,330.3,8,369.2,5,-99,-9.9,995.2,-99.9,5.5,2,-9.999,9,8.8
Hakuho-maru,KH70-2,74,1970,4,18,20,,44.25,166.67,330.3,8,370.8,5,-99,-9.9,995.6,-99.9,5.7,2,-9.999,9,9
Hakuho-maru,KH70-2,75,1970,4,18,21,,44.34,166.98,330.3,8,372.8,5,-99,-9.9,996.1,-99.9,5.7,2,-9.999,9,9
Hakuho-maru,KH70-2,76,1970,4,18,22,,44.43,167.28,330.3,8,351.6,5,-99,-9.9,996.7,-99.9,4,2,-9.999,9,8
Hakuho-maru,KH70-2,77,1970,4,18,23,,44.52,167.59,330.3,8,347.2,5,-99,-9.9,997.2,-99.9,3,2,-9.999,9,7.4
Hakuho-maru,KH70-2,78,1970,4,19,0,,44.59,167.9,330.3,8,359.9,5,-99,-9.9,997.8,-99.9,2.7,2,-9.999,9,7.3
Hakuho-maru,KH70-2,79,1970,4,19,1,,44.61,168.2,330.3,8,347.9,5,-99,-9.9,998.8,-99.9,3.8,2,-9.999,9,7.8
Hakuho-maru,KH70-2,80,1970,4,19,2,,44.64,168.5,330.3,8,372.6,5,-99,-9.9,999.8,-99.9,4.1,2,-9.999,9,8
Hakuho-maru,KH70-2,81,1970,4,19,3,,44.66,168.8,330.3,8,369,5,-99,-9.9,1000.8,-99.9,3.8,2,-9.999,9,7.8
Hakuho-maru,KH70-2,87,1970,4,19,9,,44.7,170.7,330.3,8,343.7,5,-99,-9.9,1009.6,-99.9,3.8,2,-9.999,9,7.8
Hakuho-maru,KH70-2,88,1970,4,19,10,,44.72,171.02,330.3,8,342.1,5,-99,-9.9,1010.5,-99.9,3.5,2,-9.999,9,7.7
Hakuho-maru,KH70-2,89,1970,4,19,11,,44.74,171.34,330.3,8,345.5,5,-99,-9.9,1011.4,-99.9,4.1,2,-9.999,9,8
Hakuho-maru,KH70-2,90,1970,4,19,12,,44.76,171.66,330.3,8,344.6,5,-99,-9.9,1012.3,-99.9,4.1,2,-9.999,9,8
Hakuho-maru,KH70-2,91,1970,4,19,13,,44.79,171.98,330.3,8,340.1,5,-99,-9.9,1013.2,-99.9,4.2,2,-9.999,9,8.1
Hakuho-maru,KH70-2,92,1970,4,19,14,,44.82,172.3,330.3,8,340.3,5,-99,-9.9,1014.1,-99.9,4.7,2,-9.999,9,8.4
Hakuho-maru,KH70-2,93,1970,4,19,15,,44.92,172.6,330.3,8,341.4,5,-99,-9.9,1015,-99.9,4.2,2,-9.999,9,8.1
Hakuho-maru,KH70-2,94,1970,4,19,16,,45.01,172.89,330.3,8,347.7,5,-99,-9.9,1015.8,-99.9,5.2,2,-9.999,9,8.6
Hakuho-maru,KH70-2,95,1970,4,19,17,,45.11,173.19,330.3,8,342.6,5,-99,-9.9,1016.7,-99.9,5,2,-9.999,9,8.5
Hakuho-maru,KH70-2,96,1970,4,19,18,,45.2,173.49,330.3,8,338.8,5,-99,-9.9,1017.6,-99.9,5,2,-9.999,9,8.5
Hakuho-maru,KH70-2,97,1970,4,19,19,,45.3,173.77,330.3,8,338.9,5,-99,-9.9,1018.4,-99.9,5,2,-9.999,9,8.5
Hakuho-maru,KH70-2,98,1970,4,19,20,,45.4,174.03,330.3,8,342.5,5,-99,-9.9,1019.2,-99.9,4.8,2,-9.999,9,8.4
Hakuho-maru,KH70-2,99,1970,4,19,21,,45.5,174.3,330.3,8,335.1,5,-99,-9.9,1020,-99.9,4.8,2,-9.999,9,8.4
Hakuho-maru,KH70-2,100,1970,4,19,22,,45.6,174.57,330.3,8,349.7,5,-99,-9.9,1020.8,-99.9,5.9,2,-9.999,9,9.1
Hakuho-maru,KH70-2,101,1970,4,19,23,,45.7,174.83,330.3,8,349.7,5,-99,-9.9,1021.6,-99.9,6,2,-9.999,9,9.2
Hakuho-maru,KH70-2,102,1970,4,20,0,,45.8,175.14,330.3,8,344.2,5,-99,-9.9,1022.4,-99.9,6,2,-9.999,9,9.2
Hakuho-maru,KH70-2,103,1970,4,20,1,,45.9,175.46,330.3,8,338.7,5,-99,-9.9,1023.2,-99.9,6.1,2,-9.999,9,9.3
Hakuho-maru,KH70-2,104,1970,4,20,2,,46,175.77,330.3,8,344.5,5,-99,-9.9,1024,-99.9,5.3,2,-9.999,9,8.7
Hakuho-maru,KH70-2,105,1970,4,20,3,,46.1,176.09,330.3,8,336.3,5,-99,-9.9,1024.7,-99.9,5.4,2,-9.999,9,8.8
Hakuho-maru,KH70-2,106,1970,4,20,4,,46.2,176.4,330.3,8,330.8,5,-99,-9.9,1025.5,-99.9,4.8,2,-9.999,9,8.4
Hakuho-maru,KH70-2,107,1970,4,20,5,,46.3,176.7,330.4,8,333.1,5,-99,-9.9,1026,-99.9,4.7,2,-9.999,9,8.4
Hakuho-maru,KH70-2,108,1970,4,20,6,,46.4,177,330.4,8,322.7,5,-99,-9.9,1026.6,-99.9,5.1,2,-9.999,9,8.6
Hakuho-maru,KH70-2,109,1970,4,20,7,,46.5,177.3,330.4,8,321.8,5,-99,-9.9,1027.1,-99.9,5.1,2,-9.999,9,8.6
Hakuho-maru,KH70-2,110,1970,4,20,8,,46.6,177.6,330.4,8,319.8,5,-99,-9.9,1027.7,-99.9,5.2,2,-9.999,9,8.6
Hakuho-maru,KH70-2,111,1970,4,20,9,,46.69,177.86,330.4,8,320.8,5,-99,-9.9,1027.8,-99.9,5.2,2,-9.999,9,8.6
Hakuho-maru,KH70-2,112,1970,4,20,10,,46.84,178.33,330.4,8,322.7,5,-99,-9.9,1027.8,-99.9,5.2,2,-9.999,9,8.6
Hakuho-maru,KH70-2,113,1970,4,20,11,,46.92,178.57,330.4,8,324.4,5,-99,-9.9,1027.7,-99.9,4.5,2,-9.999,9,8.2
Hakuho-maru,KH70-2,114,1970,4,20,12,,47,178.81,330.4,8,325.3,5,-99,-9.9,1027.7,-99.9,4.6,2,-9.999,9,8.3
Hakuho-maru,KH70-2,115,1970,4,20,13,,47.09,179.14,330.4,8,327.8,5,-99,-9.9,1027.6,-99.9,3.7,2,-9.999,9,7.8
Hakuho-maru,KH70-2,116,1970,4,20,14,,47.18,179.48,330.4,8,331.9,5,-99,-9.9,1027.4,-99.9,4.2,2,-9.999,9,8.1
Hakuho-maru,KH70-2,117,1970,4,20,15,,47.26,179.82,330.4,8,324.5,5,-99,-9.9,1027.3,-99.9,4.2,2,-9.999,9,8.1
Hakuho-maru,KH70-2,118,1970,4,20,16,,47.35,180.16,330.4,8,323.7,5,-99,-9.9,1027.1,-99.9,4.4,2,-9.999,9,8.2
Hakuho-maru,KH70-2,119,1970,4,20,17,,47.45,180.48,330.4,8,321.2,5,-99,-9.9,1027,-99.9,4.6,2,-9.999,9,8.3
Hakuho-maru,KH70-2,120,1970,4,20,18,,47.56,180.74,330.4,8,319.6,5,-99,-9.9,1026.9,-99.9,4.7,2,-9.999,9,8.4
Hakuho-maru,KH70-2,121,1970,4,20,19,,47.67,181,330.4,8,316.8,5,-99,-9.9,1026.8,-99.9,4.7,2,-9.999,9,8.4
Hakuho-maru,KH70-2,122,1970,4,20,20,,47.78,181.26,330.4,8,317.5,5,-99,-9.9,1026.8,-99.9,4.7,2,-9.999,9,8.4
Hakuho-maru,KH70-2,123,1970,4,20,21,,47.9,181.52,330.4,8,318.6,5,-99,-9.9,1026.7,-99.9,4.7,2,-9.999,9,8.4
Hakuho-maru,KH70-2,124,1970,4,20,22,,48,181.81,330.4,8,320.1,5,-99,-9.9,1026.6,-99.9,4.7,2,-9.999,9,8.4
Hakuho-maru,KH70-2,125,1970,4,20,23,,48.1,182.13,330.5,8,328.6,5,-99,-9.9,1026.5,-99.9,4.7,2,-9.999,9,8.4
Hakuho-maru,KH70-2,126,1970,4,21,0,,48.2,182.44,330.5,8,318.6,5,-99,-9.9,1026.3,-99.9,4.1,2,-9.999,9,8
Hakuho-maru,KH70-2,127,1970,4,21,1,,48.3,182.76,330.6,8,321.2,5,-99,-9.9,1026.2,-99.9,3.8,2,-9.999,9,7.8
Hakuho-maru,KH70-2,128,1970,4,21,2,,48.4,183.07,330.6,8,320.8,5,-99,-9.9,1026.1,-99.9,3.4,2,-9.999,9,7.6
Hakuho-maru,KH70-2,133,1970,4,21,7,,48.99,184.56,330.8,8,331.5,5,-99,-9.9,1026.4,-99.9,3.4,2,-9.999,9,7.6
Hakuho-maru,KH70-2,135,1970,4,21,9,,49.26,185.35,330.8,8,332.6,5,-99,-9.9,1026,-99.9,3.4,2,-9.999,9,7.6
Hakuho-maru,KH70-2,136,1970,4,21,10,,49.34,185.61,330.8,8,316.1,5,-99,-9.9,1025.8,-99.9,3.5,2,-9.999,9,7.7
Hakuho-maru,KH70-2,137,1970,4,21,11,,49.41,185.88,330.9,8,316.8,5,-99,-9.9,1025.6,-99.9,2.4,2,-9.999,9,7.1
Hakuho-maru,KH70-2,138,1970,4,21,12,,49.46,186.16,330.9,8,317.7,5,-99,-9.9,1025.5,-99.9,3.4,2,-9.999,9,7.6
Hakuho-maru,KH70-2,139,1970,4,21,13,,49.5,186.44,330.9,8,327.2,5,-99,-9.9,1025.3,-99.9,3.4,2,-9.999,9,7.6
Hakuho-maru,KH70-2,140,1970,4,21,14,,49.55,186.72,330.8,8,330.3,5,-99,-9.9,1025.1,-99.9,3.4,2,-9.999,9,7.6
Hakuho-maru,KH70-2,141,1970,4,21,15,,49.6,187,330.8,8,330.2,5,-99,-9.9,1024.9,-99.9,3.4,2,-9.999,9,7.6
Hakuho-maru,KH70-2,142,1970,4,21,16,,49.44,187.28,330.8,8,330.9,5,-99,-9.9,1025.6,-99.9,3.5,2,-9.999,9,7.7
Hakuho-maru,KH70-2,143,1970,4,21,17,,49.29,187.56,330.8,8,332.7,5,-99,-9.9,1026.3,-99.9,2.6,2,-9.999,9,7.2
Hakuho-maru,KH70-2,144,1970,4,21,18,,49.13,187.84,330.8,8,332,5,-99,-9.9,1027,-99.9,3.9,2,-9.999,9,7.9
Hakuho-maru,KH70-2,145,1970,4,21,19,,48.98,188.11,330.8,8,328.7,5,-99,-9.9,1027.6,-99.9,3,2,-9.999,9,7.4
Hakuho-maru,KH70-2,146,1970,4,21,20,,48.83,188.39,330.8,8,330.5,5,-99,-9.9,1028.2,-99.9,3.7,2,-9.999,9,7.8
Hakuho-maru,KH70-2,147,1970,4,21,21,,48.7,188.66,330.8,8,331.6,5,-99,-9.9,1028.7,-99.9,3.8,2,-9.999,9,7.8
Hakuho-maru,KH70-2,148,1970,4,21,22,,48.57,188.94,330.8,8,308.9,5,-99,-9.9,1029.1,-99.9,4.3,2,-9.999,9,8.1
Hakuho-maru,KH70-2,149,1970,4,21,23,,48.44,189.21,330.8,8,307.6,5,-99,-9.9,1029.6,-99.9,4,2,-9.999,9,8
Hakuho-maru,KH70-2,150,1970,4,22,0,,48.3,189.48,330.8,8,308.4,5,-99,-9.9,1030,-99.9,4,2,-9.999,9,8
Hakuho-maru,KH70-2,151,1970,4,22,1,,48.23,189.63,330.8,8,327.7,5,-99,-9.9,1029.9,-99.9,4.3,2,-9.999,9,8.1
Hakuho-maru,KH70-2,152,1970,4,22,2,,48.17,189.72,330.8,8,332.1,5,-99,-9.9,1029.6,-99.9,4.4,2,-9.999,9,8.2
Hakuho-maru,KH70-2,153,1970,4,22,3,,48.11,189.82,330.8,8,326.5,5,-99,-9.9,1029.3,-99.9,4.5,2,-9.999,9,8.2
Hakuho-maru,KH70-2,155,1970,4,22,5,,48,190,330.8,8,318.9,5,-99,-9.9,1028.7,-99.9,4.4,2,-9.999,9,8.2
Hakuho-maru,KH70-2,156,1970,4,22,6,,48.02,190,330.8,8,310.4,5,-99,-9.9,1028.4,-99.9,4.5,2,-9.999,9,8.2
Hakuho-maru,KH70-2,157,1970,4,22,7,,48.04,190,330.8,8,311.8,5,-99,-9.9,1028.1,-99.9,4.4,2,-9.999,9,8.2
Hakuho-maru,KH70-2,159,1970,4,22,9,,48.08,190,330.8,8,325.4,5,-99,-9.9,1027.5,-99.9,4.5,2,-9.999,9,8.2
Hakuho-maru,KH70-2,160,1970,4,22,10,,48.18,190,330.8,8,314.9,5,-99,-9.9,1026.8,-99.9,4.3,2,-9.999,9,8.1
Hakuho-maru,KH70-2,161,1970,4,22,11,,48.41,190,330.8,8,318.5,5,-99,-9.9,1025.5,-99.9,4.2,2,-9.999,9,8.1
Hakuho-maru,KH70-2,162,1970,4,22,12,,48.63,190,330.8,8,329.3,5,-99,-9.9,1024.2,-99.9,4.2,2,-9.999,9,8.1
Hakuho-maru,KH70-2,163,1970,4,22,13,,48.85,190,330.8,8,319.8,5,-99,-9.9,1022.9,-99.9,3.1,2,-9.999,9,7.5
Hakuho-maru,KH70-2,174,1970,4,23,0,,50.95,190,330.9,8,315.5,5,-99,-9.9,1018.4,-99.9,3.4,2,-9.999,9,7.6
Hakuho-maru,KH70-2,175,1970,4,23,1,,50.96,190,330.9,8,318.9,5,-99,-9.9,1019.3,-99.9,3.4,2,-9.999,9,7.6
Hakuho-maru,KH70-2,176,1970,4,23,2,,50.98,190,330.9,8,318.1,5,-99,-9.9,1020.2,-99.9,3.4,2,-9.999,9,7.6
Hakuho-maru,KH70-2,180,1970,4,23,6,,50.78,190,330.9,8,318.1,5,-99,-9.9,1024.1,-99.9,3.4,2,-9.999,9,7.6
Hakuho-maru,KH70-2,181,1970,4,23,7,,50.66,190,330.9,8,312.5,5,-99,-9.9,1025.2,-99.9,3.4,2,-9.999,9,7.6
Hakuho-maru,KH70-2,182,1970,4,23,8,,50.53,190,330.9,8,310.6,5,-99,-9.9,1026.2,-99.9,3.6,2,-9.999,9,7.7
Hakuho-maru,KH70-2,183,1970,4,23,9,,50.4,190,330.9,8,311.6,5,-99,-9.9,1027.2,-99.9,3.5,2,-9.999,9,7.7
Hakuho-maru,KH70-2,184,1970,4,23,10,,50.18,190,330.9,8,314.2,5,-99,-9.9,1027.9,-99.9,3.6,2,-9.999,9,7.7
Hakuho-maru,KH70-2,185,1970,4,23,11,,49.96,190,330.9,8,315,5,-99,-9.9,1028.6,-99.9,3.6,2,-9.999,9,7.7
Hakuho-maru,KH70-2,186,1970,4,23,12,,49.73,190,330.8,8,311.6,5,-99,-9.9,1029.3,-99.9,3.7,2,-9.999,9,7.8
Hakuho-maru,KH70-2,187,1970,4,23,13,,49.51,190,330.8,8,310.7,5,-99,-9.9,1030,-99.9,3.8,2,-9.999,9,7.8
Hakuho-maru,KH70-2,188,1970,4,23,14,,49.29,190,330.8,8,310.5,5,-99,-9.9,1030.6,-99.9,2.9,2,-9.999,9,7.4
Hakuho-maru,KH70-2,189,1970,4,23,15,,49.07,190,330.8,8,310.8,5,-99,-9.9,1031.1,-99.9,4,2,-9.999,9,8
Hakuho-maru,KH70-2,190,1970,4,23,16,,48.85,190,330.8,8,310.5,5,-99,-9.9,1031.5,-99.9,4.1,2,-9.999,9,8
Hakuho-maru,KH70-2,191,1970,4,23,17,,48.63,190,330.8,8,311.7,5,-99,-9.9,1032,-99.9,4.4,2,-9.999,9,8.2
Hakuho-maru,KH70-2,192,1970,4,23,18,,48.41,190,330.8,8,313.6,5,-99,-9.9,1032.5,-99.9,4.4,2,-9.999,9,8.2
Hakuho-maru,KH70-2,193,1970,4,23,19,,48.3,190,330.8,8,315.5,5,-99,-9.9,1032.7,-99.9,4.3,2,-9.999,9,8.1
Hakuho-maru,KH70-2,194,1970,4,23,20,,48.23,190,330.8,8,316.3,5,-99,-9.9,1032.8,-99.9,5.2,2,-9.999,9,8.6
Hakuho-maru,KH70-2,195,1970,4,23,21,,48.15,190,330.8,8,318.2,5,-99,-9.9,1032.9,-99.9,4.4,2,-9.999,9,8.2
Hakuho-maru,KH70-2,196,1970,4,23,22,,48.08,190,330.7,8,313.2,5,-99,-9.9,1033,-99.9,4.4,2,-9.999,9,8.2
Hakuho-maru,KH70-2,199,1970,4,24,1,,47.78,190,330.7,8,308.8,5,-99,-9.9,1032.4,-99.9,4.5,2,-9.999,9,8.2
Hakuho-maru,KH70-2,200,1970,4,24,2,,47.67,190,330.7,8,309.1,5,-99,-9.9,1032.1,-99.9,4.3,2,-9.999,9,8.1
Hakuho-maru,KH70-2,202,1970,4,24,4,,47.4,190,330.7,8,311.3,5,-99,-9.9,1031.8,-99.9,4.5,2,-9.999,9,8.2
Hakuho-maru,KH70-2,203,1970,4,24,5,,47.18,190,330.7,8,311.8,5,-99,-9.9,1032.2,-99.9,4.5,2,-9.999,9,8.2
Hakuho-maru,KH70-2,204,1970,4,24,6,,46.96,190,330.7,8,311.1,5,-99,-9.9,1032.7,-99.9,4.6,2,-9.999,9,8.3
Hakuho-maru,KH70-2,205,1970,4,24,7,,46.75,190,330.7,8,313.3,5,-99,-9.9,1033.1,-99.9,4.6,2,-9.999,9,8.3
Hakuho-maru,KH70-2,206,1970,4,24,8,,46.53,190,330.7,8,304.6,5,-99,-9.9,1033.5,-99.9,4.7,2,-9.999,9,8.4
Hakuho-maru,KH70-2,210,1970,4,24,12,,45.69,190,330.6,8,301.8,5,-99,-9.9,1034.5,-99.9,5.7,2,-9.999,9,9
Hakuho-maru,KH70-2,211,1970,4,24,13,,45.49,190,330.6,8,302.6,5,-99,-9.9,1034.7,-99.9,5.9,2,-9.999,9,9.1
Hakuho-maru,KH70-2,212,1970,4,24,14,,45.39,190,330.6,8,300.7,5,-99,-9.9,1034.7,-99.9,6.4,2,-9.999,9,9.4
Hakuho-maru,KH70-2,213,1970,4,24,15,,45.28,190,330.6,8,305.3,5,-99,-9.9,1034.8,-99.9,6.5,2,-9.999,9,9.5
Hakuho-maru,KH70-2,214,1970,4,24,16,,45.17,190,330.6,8,303.6,5,-99,-9.9,1034.9,-99.9,6.5,2,-9.999,9,9.5
Hakuho-maru,KH70-2,215,1970,4,24,17,,45.06,190,330.6,8,302.2,5,-99,-9.9,1035,-99.9,6.9,2,-9.999,9,9.8
Hakuho-maru,KH70-2,216,1970,4,24,18,,44.96,190.01,330.6,8,303.8,5,-99,-9.9,1035,-99.9,6.9,2,-9.999,9,9.8
Hakuho-maru,KH70-2,217,1970,4,24,19,,44.88,190.03,330.6,8,304.2,5,-99,-9.9,1035,-99.9,6.9,2,-9.999,9,9.8
Hakuho-maru,KH70-2,218,1970,4,24,20,,44.79,190.05,330.6,8,306.6,5,-99,-9.9,1035,-99.9,6.9,2,-9.999,9,9.8
Hakuho-maru,KH70-2,219,1970,4,24,21,,44.7,190.08,330.5,8,302.8,5,-99,-9.9,1035,-99.9,6.8,2,-9.999,9,9.7
Hakuho-maru,KH70-2,220,1970,4,24,22,,44.62,190.1,330.5,8,302.5,5,-99,-9.9,1034.9,-99.9,6.8,2,-9.999,9,9.7
Hakuho-maru,KH70-2,221,1970,4,24,23,,44.41,190.1,330.5,8,302.7,5,-99,-9.9,1034.8,-99.9,6.9,2,-9.999,9,9.8
Hakuho-maru,KH70-2,222,1970,4,25,0,,44.18,190.1,330.5,8,303.8,5,-99,-9.9,1034.6,-99.9,8.9,2,-9.999,9,11.2
Hakuho-maru,KH70-2,223,1970,4,25,1,,43.95,190.1,330.5,8,301.6,5,-99,-9.9,1034.4,-99.9,7.3,2,-9.999,9,10
Hakuho-maru,KH70-2,232,1970,4,25,10,,42.21,190,330.4,8,302.8,5,-99,-9.9,1034.6,-99.9,10.1,2,-9.999,9,12.1
Hakuho-maru,KH70-2,233,1970,4,25,11,,42.11,190,330.4,8,299.3,5,-99,-9.9,1034.5,-99.9,10.1,2,-9.999,9,12.1
Hakuho-maru,KH70-2,234,1970,4,25,12,,42.01,190,330.4,8,298.3,5,-99,-9.9,1034.4,-99.9,10.1,2,-9.999,9,12.1
Hakuho-maru,KH70-2,235,1970,4,25,13,,41.94,190,330.4,8,298,5,-99,-9.9,1033.8,-99.9,10,2,-9.999,9,12
Hakuho-maru,KH70-2,236,1970,4,25,14,,41.88,190,330.4,8,299.4,5,-99,-9.9,1033.1,-99.9,10,2,-9.999,9,12
Hakuho-maru,KH70-2,237,1970,4,25,15,,41.81,190,330.4,8,297.8,5,-99,-9.9,1032.5,-99.9,10.1,2,-9.999,9,12.1
Hakuho-maru,KH70-2,238,1970,4,25,16,,41.75,190,330.4,8,302.2,5,-99,-9.9,1031.8,-99.9,10.1,2,-9.999,9,12.1
Hakuho-maru,KH70-2,239,1970,4,25,17,,41.67,190,330.4,8,307.3,5,-99,-9.9,1031.3,-99.9,10.1,2,-9.999,9,12.1
Hakuho-maru,KH70-2,240,1970,4,25,18,,41.53,190,330.4,8,300.4,5,-99,-9.9,1031.2,-99.9,9.6,2,-9.999,9,11.7
Hakuho-maru,KH70-2,241,1970,4,25,19,,41.39,190,330.4,8,303.6,5,-99,-9.9,1031.1,-99.9,10.1,2,-9.999,9,12.1
Hakuho-maru,KH70-2,242,1970,4,25,20,,41.24,190.01,330.4,8,297.1,5,-99,-9.9,1031.1,-99.9,10.3,2,-9.999,9,12.3
Hakuho-maru,KH70-2,243,1970,4,25,21,,41.1,190.01,330.4,8,299.4,5,-99,-9.9,1031,-99.9,10.1,2,-9.999,9,12.1
Hakuho-maru,KH70-2,244,1970,4,25,22,,40.94,190.02,330.4,8,295.4,5,-99,-9.9,1030.5,-99.9,10.7,2,-9.999,9,12.6
Hakuho-maru,KH70-2,245,1970,4,25,23,,40.76,190.04,330.4,8,302.5,5,-99,-9.9,1029.8,-99.9,10.7,2,-9.999,9,12.6
Hakuho-maru,KH70-2,246,1970,4,26,0,,40.58,190.06,330.3,8,305.8,5,-99,-9.9,1029.1,-99.9,10.4,2,-9.999,9,12.3
Hakuho-maru,KH70-2,247,1970,4,26,1,,40.4,190.08,330.3,8,295.8,5,-99,-9.9,1028.3,-99.9,11,2,-9.999,9,12.8
Hakuho-maru,KH70-2,248,1970,4,26,2,,40.22,190.1,330.3,8,294.4,5,-99,-9.9,1027.6,-99.9,11.5,2,-9.999,9,13.3
Hakuho-maru,KH70-2,249,1970,4,26,3,,40.03,190.1,330.3,8,295.5,5,-99,-9.9,1027.6,-99.9,11.5,2,-9.999,9,13.3
Hakuho-maru,KH70-2,250,1970,4,26,4,,39.83,190.09,330.3,8,299.1,5,-99,-9.9,1027.7,-99.9,11.5,2,-9.999,9,13.3
Hakuho-maru,KH70-2,251,1970,4,26,5,,39.63,190.09,330.3,8,292.9,5,-99,-9.9,1027.8,-99.9,11.7,2,-9.999,9,13.4
Hakuho-maru,KH70-2,252,1970,4,26,6,,39.43,190.08,330.3,8,295.6,5,-99,-9.9,1027.9,-99.9,12.1,2,-9.999,9,13.8
Hakuho-maru,KH70-2,253,1970,4,26,7,,39.26,190.08,330.3,8,295.5,5,-99,-9.9,1028,-99.9,12,2,-9.999,9,13.7
Hakuho-maru,KH70-2,254,1970,4,26,8,,39.2,190.08,330.3,8,291.5,5,-99,-9.9,1028,-99.9,12.2,2,-9.999,9,13.9
Hakuho-maru,KH70-2,255,1970,4,26,9,,39.14,190.08,330.2,8,293.7,5,-99,-9.9,1028,-99.9,12.2,2,-9.999,9,13.9
Hakuho-maru,KH70-2,256,1970,4,26,10,,39.08,190.08,330.2,8,297.7,5,-99,-9.9,1028,-99.9,12.2,2,-9.999,9,13.9
Hakuho-maru,KH70-2,257,1970,4,26,11,,39.02,190.08,330.2,8,297.3,5,-99,-9.9,1028,-99.9,12.2,2,-9.999,9,13.9
Hakuho-maru,KH70-2,258,1970,4,26,12,,38.99,190.09,330.2,8,295.3,5,-99,-9.9,1027.7,-99.9,12.1,2,-9.999,9,13.8
Hakuho-maru,KH70-2,259,1970,4,26,13,,38.98,190.09,330.2,8,296.5,5,-99,-9.9,1027.3,-99.9,12.2,2,-9.999,9,13.9
Hakuho-maru,KH70-2,260,1970,4,26,14,,38.98,190.09,330.2,8,295.9,5,-99,-9.9,1026.9,-99.9,12,2,-9.999,9,13.7
Hakuho-maru,KH70-2,261,1970,4,26,15,,38.97,190.1,330.2,8,296.1,5,-99,-9.9,1026.5,-99.9,12,2,-9.999,9,13.7
Hakuho-maru,KH70-2,262,1970,4,26,16,,38.96,190.1,330.2,8,294.3,5,-99,-9.9,1026.1,-99.9,12.2,2,-9.999,9,13.9